Miscellaneous Local Product
Issued by NWS North Platte, NE

Home | Current Version | Previous Version | Text Only | Print | Product List | Glossary On
Versions: 1 2 3 4 5 6 7 8 9 10 11 12 13 14 15 16 17 18 19 20 21 22 23 24 25 26 27 28 29 30 31 32 33 34 35 36 37 38 39 40 41 42 43 44 45 46 47 48 49 50
952
AXUS43 KLBF 051410
MISLBF


WESTERN AND NORTH CENTRAL NEBRASKA HOURLY WEATHER ROUNDUP
NATIONAL WEATHER SERVICE NORTH PLATTE NE
800 AM CST MON DEC 05 2016

NOTE: "FAIR" INDICATES FEW OR NO CLOUDS BELOW 12,000 FEET WITH NO
SIGNIFICANT WEATHER AND/OR OBSTRUCTIONS TO VISIBILITY.

NOTE: STATIONS NOT REPORTING VARIABLES SUCH AS SKY/WEATHER OR
PRESSURE ARE PROVIDED BY RAWS AND APRS NETWORKS AND ARE NOT UNDER
NATIONAL WEATHER SERVICE QUALITY CONTROL.

...OBSERVATIONS IN AND NEAR THE EASTERN PANHANDLE OF NEBRASKA...

CITY           SKY/WX    TMP DP  RH WIND       PRES   REMARKS
PINE RIDGE     CLEAR     31  25  78 CALM      29.50R
CHADRON        CLEAR     34  23  64 W3        29.52R
ALLIANCE       CLOUDY    41  22  46 W8        29.53S
SIDNEY         CLOUDY    34  20  56 W9        29.57R WCI  27
CRESCENT LAKE    N/A     40  20  44 CALM        N/A
$$

...OBSERVATIONS IN NORTHERN NEBRASKA AND FAR SOUTHERN SOUTH DAKOTA...

CITY           SKY/WX    TMP DP  RH WIND       PRES   REMARKS
WINNER         FAIR      42  24  49 SW15      29.46F
VALENTINE      CLOUDY    39  21  48 SW10      29.49F WCI  32
THEDFORD       CLOUDY    52  27  37 W13       29.55S
AINSWORTH      PTCLDY    39  23  51 SW12      29.50F WCI  32
O`NEILL        CLOUDY    38  23  55 S12       29.54F WCI  30
ORD            PTCLDY    38  22  52 S8        29.59F WCI  32
BROKEN BOW     PTCLDY    35  23  61 S6        29.56F WCI  30
VALENTINE NWR    N/A     41  20  42 SW6         N/A
BUTTE            N/A     35  25  67 S3          N/A
HALSEY           N/A     45  22  39 W5          N/A
CHAMBERS         N/A     35  20  54 S7          N/A  WCI  29
EWING            N/A     38  26  62 S6G15       N/A  WCI  33
$$

...OBSERVATIONS IN SOUTHWEST NEBRASKA AND FAR NORTHEAST COLORADO...

CITY           SKY/WX    TMP DP  RH WIND       PRES   REMARKS
HOLYOKE        FAIR      34  19  55 SW7G18    29.59R WCI  28
IMPERIAL       CLOUDY    30  19  63 N5        29.55F WCI  25
OGALLALA       CLOUDY    35  21  57 CALM      29.58R
NORTH PLATTE   CLOUDY    34  21  59 SW6       29.60R WCI  29
MCCOOK         CLOUDY    29  21  72 W5        29.60S WCI  24
LEXINGTON      CLOUDY    34  24  67 SE6       29.59S WCI  28
STAPLETON        N/A     33  21  60 CALM        N/A
GOTHENBURG       N/A     34  21  59 SW3         N/A
CALLAWAY         N/A     32  23  70 S3          N/A
$$

...OBSERVATIONS IN CENTRAL LINCOLN COUNTY AREA...

CITY           SKY/WX    TMP DP  RH WIND       PRES   REMARKS
N.P. AIRPORT   CLOUDY    34  21  59 SW6       29.60R WCI  29
N.P. DOWNTOWN    N/A     34  22  62 S3          N/A
N.P. SOUTHEAST   N/A     34  22  61 SW5         N/A  WCI  30
N.P. HILLCREST   N/A     34  24  65 CALM        N/A
$$

...SOME OBSERVATIONS FROM AROUND THE REGION...

CITY           SKY/WX    TMP DP  RH WIND       PRES   REMARKS
LARAMIE        CLOUDY    26  21  81 SW13      29.57F WCI  15
CHEYENNE       CLEAR     36  19  50 W16       29.56F WCI  26
DENVER         CLOUDY    34  17  50 NW3       29.59R
AKRON          CLOUDY    35  16  45 SW9       29.58R WCI  28
SCOTTSBLUFF    PTCLDY    45  23  42 W10       29.54S
RAPID CITY     CLEAR     32  27  81 NW28G37   29.50R WCI  18
BISMARCK       CLOUDY    20  18  92 CALM      29.56R
PIERRE         CLOUDY    22  20  92 NE6       29.46F WCI  14
SIOUX FALLS    CLOUDY    37  30  75 S15       29.58F WCI  28
OMAHA          MOCLDY    36  29  75 S16       29.76F WCI  26
GRAND ISLAND   PTCLDY    37  27  67 S17       29.64F WCI  27
KANSAS CITY    PTCLDY    32  30  92 S9        29.89F WCI  24
WICHITA        PTCLDY    31  29  92 S8        29.85R WCI  23
OKLAHOMA CITY  FOG       31  30  96 S3        29.88S VSB 1/4
DALLAS         CLOUDY    48  41  76 E8        29.93R
AMARILLO       CLOUDY    37  24  59 SW22G28   29.73F WCI  26
DODGE CITY     CLOUDY    32  27  81 S15       29.68F WCI  22
HAYS           CLEAR     36  27  69 S14       29.67S WCI  27
GOODLAND       CLOUDY    28  15  58 SW10      29.58S WCI  19
$$




USA.gov is the U.S. government's official web portal to all federal, state and local government web resources and services.